User: anonymous   Login
Location: Linz
(48.3300°N, 14.3000°E)
Time: 16:59:18
(UTC+01:00)
Language:

Tiangong 1 - Orbit

View from above orbital plane
View from above orbital plane
View from above satellite
View from above satellite

Ground track
Ground track

The orbit data is extracted from the following two-line orbital elements,

1 37820U 11053A   18056.09209020  .00157479  19595-4  19452-3 0  9992
2 37820  42.7514  66.3280 0015742 108.9751 314.9726 16.06888808368226
Epoch (UTC): 25 February 2018 02:12:36
Eccentricity: 0.0015742
inclination: 42.7514°
perigee height: 245 km
apogee height: 266 km
right ascension of ascending node: 66.3280°
argument of perigee: 108.9751°
revolutions per day: 16.06888808
mean anomaly at epoch: 314.9726°
orbit number at epoch: 36822

The dashed part of the orbit path shows where the satellite is in the earth's shadow,  

DLR